Weather History for Indianapolis, IN

Change the Weather History Date:

Thursday, March 27, 2014

  Actual Average Record
Temperature  
Mean Temperature 42 °F 46 °F  
Max Temperature 52 °F 56 °F 84 °F (1910)
Min Temperature 31 °F 36 °F 11 °F (1955)
Degree Days  
Heating Degree Days 23 19  
Month to date heating degree days 810 635  
Since 1 July heating degree days 5607 4778  
Cooling Degree Days 0 0  
Month to date cooling degree days 0 0  
Year to date cooling degree days 0 0  
Moisture  
Dew Point 27 °F    
Average Humidity 52    
Maximum Humidity 66    
Minimum Humidity 38    
Precipitation  
Precipitation 0.05 in 0.13 in 2.27 in (1880)
Month to date precipitation 1.63 3.05  
Year to date precipitation 6.42 8.03  
Snow  
Snow T in 0.10 in 1.80 in (1913)
Month to date snowfall 3.1 2.5  
Since 1 July snowfall 55.4 25.6  
Snow Depth 0.00 in    
Sea Level Pressure  
Sea Level Pressure 29.94 in    
Wind  
Wind Speed 14 mph (SSE)    
Max Wind Speed 26 mph    
Max Gust Speed 34 mph    
Visibility 10 miles    
Events Rain    
T = Trace of Precipitation, MM = Missing Value Source: NWS Daily Summary

Daily Weather History Graph

Daily Weather History Graph

Search for Another Location

Airport:

Trip Planner

Search our weather history database for the weather conditions in past years. The results will help you decide how hot, cold, wet, or windy it might be!

Date:

Astronomy

Mar. 27, 2014 Rise Set
Actual Time 7:37 AM EDT 8:04 PM EDT
Civil Twilight 7:10 AM EDT 8:31 PM EDT
Nautical Twilight 6:38 AM EDT 9:03 PM EDT
Astronomical Twilight 6:06 AM EDT 9:35 PM EDT
Moon 5:27 AM EDT (3/27) 4:51 PM EDT (3/27)
Length of Visible Light 13h 21m
Length of Day
12h 26m
Waning Crescent, 13% of the Moon is Illuminated
Mar 27
Waning Crescent
Mar 30
New
Apr 7
First Quarter
Apr 15
Full
Apr 22
Last Quarter

Hourly Weather History & Observations

Time (EDT) Temp. Windchill Dew Point Humidity Pressure Visibility Wind Dir Wind Speed Gust Speed Precip Events Conditions
12:54 AM 32.0 °F 23.0 °F 10.9 °F 42% 30.17 in 10.0 mi SSE 11.5 mph - N/A   Mostly Cloudy
1:54 AM 32.0 °F 23.0 °F 12.0 °F 44% 30.15 in 10.0 mi SSE 11.5 mph - N/A   Mostly Cloudy
2:54 AM 32.0 °F 23.0 °F 12.9 °F 45% 30.12 in 10.0 mi SSE 11.5 mph - N/A   Overcast
3:54 AM 34.0 °F 25.0 °F 12.9 °F 42% 30.11 in 10.0 mi SSE 12.7 mph - N/A   Overcast
4:54 AM 35.1 °F 27.4 °F 12.9 °F 40% 30.09 in 10.0 mi SSE 10.4 mph - N/A   Overcast
5:54 AM 33.1 °F 26.9 °F 21.0 °F 61% 30.07 in 10.0 mi SE 6.9 mph - 0.00 in Rain Light Rain
6:54 AM 34.0 °F 25.0 °F 19.9 °F 56% 30.06 in 10.0 mi SSE 12.7 mph - 0.00 in   Overcast
7:54 AM 35.1 °F 25.2 °F 19.0 °F 52% 30.02 in 10.0 mi SE 16.1 mph - 0.00 in   Overcast
8:54 AM 35.1 °F 25.9 °F 23.0 °F 61% 30.04 in 10.0 mi SSE 13.8 mph - 0.00 in   Overcast
9:54 AM 35.1 °F 26.9 °F 26.1 °F 70% 30.01 in 10.0 mi SE 11.5 mph - 0.00 in Rain Light Rain
10:54 AM 37.9 °F 29.6 °F 25.0 °F 60% 29.99 in 10.0 mi SSE 13.8 mph - 0.00 in   Overcast
11:54 AM 39.0 °F 30.3 °F 26.1 °F 60% 29.97 in 10.0 mi SSE 16.1 mph - 0.00 in Rain Light Rain
12:54 PM 39.0 °F 31.4 °F 30.0 °F 70% 29.96 in 10.0 mi South 12.7 mph - 0.00 in Rain Light Rain
1:54 PM 41.0 °F 33.9 °F 30.0 °F 65% 29.91 in 10.0 mi SSE 12.7 mph - 0.01 in   Overcast
2:54 PM 43.0 °F 36.4 °F 33.1 °F 68% 29.88 in 8.0 mi South 12.7 mph - 0.00 in Rain Light Rain
3:54 PM 48.0 °F - 33.1 °F 56% 29.84 in 10.0 mi South 13.8 mph - 0.00 in   Overcast
4:54 PM 52.0 °F - 34.0 °F 50% 29.80 in 10.0 mi South 15.0 mph - N/A   Overcast
5:54 PM 48.0 °F - 37.9 °F 68% 29.78 in 10.0 mi South 16.1 mph 26.5 mph 0.02 in Rain Light Rain
6:54 PM 50.0 °F - 37.0 °F 61% 29.74 in 10.0 mi SSE 9.2 mph - 0.00 in   Overcast
7:54 PM 50.0 °F - 37.0 °F 61% 29.76 in 10.0 mi South 15.0 mph - 0.00 in Rain Light Rain
8:54 PM 48.9 °F - 37.9 °F 66% 29.75 in 10.0 mi South 21.9 mph 31.1 mph 0.00 in Rain Light Rain
9:54 PM 48.0 °F - 37.9 °F 68% 29.72 in 9.0 mi South 12.7 mph - 0.00 in Rain Light Rain
10:54 PM 48.0 °F - 37.9 °F 68% 29.76 in 10.0 mi SSW 11.5 mph - 0.01 in Rain Light Rain
11:54 PM 48.9 °F - 41.0 °F 74% 29.75 in 10.0 mi South 17.3 mph - 0.01 in   Overcast